Big Piney, WY

4:23 PM MST on February 12, 2016 (GMT -0700)
Big Piney-Marbleton

Weather History for KBPI - December, 2013

Change the Weather History Date:

Sunday, December 29, 2013

  Actual Average Record
Temperature  
Mean Temperature 7 °F 11 °F  
Max Temperature 21 °F 26 °F 51 °F (1999)
Min Temperature -7 °F -2 °F -29 °F (1983)
Degree Days  
Heating Degree Days 58 54  
Month to date heating degree days 1554 1518  
Since 1 July heating degree days 4019 4333  
Cooling Degree Days 0 0  
Month to date cooling degree days 0 0  
Year to date cooling degree days 89 35  
Moisture  
Dew Point 0 °F    
Average Humidity 76    
Maximum Humidity 95    
Minimum Humidity 57    
Precipitation  
Precipitation 0.00 in 0.01 in 0.40 in (2008)
Month to date precipitation 0.19 0.27  
Year to date precipitation 4.70 6.45  
Sea Level Pressure  
Sea Level Pressure 30.34 in    
Wind  
Wind Speed 3 mph (North)    
Max Wind Speed 17 mph    
Max Gust Speed 23 mph    
Visibility 8 miles    
Events Fog    
T = Trace of Precipitation, MM = Missing Value Source: NWS Daily Summary

Daily Weather History Graph

Daily Weather History Graph

Search for Another Location

Airport or City:

Trip Planner

Search our weather history database for the weather conditions in past years. The results will help you decide how hot, cold, wet, or windy it might be!

Date:

Astronomy

Dec. 29, 2013 Rise Set
Actual Time 7:50 AM MST 4:55 PM MST
Civil Twilight 7:17 AM MST 5:27 PM MST
Nautical Twilight 6:42 AM MST 6:03 PM MST
Astronomical Twilight 6:08 AM MST 6:37 PM MST
Moon 4:35 AM MST (12/29) 2:38 PM MST (12/29)
Length of Visible Light 10h 09m
Length of Day
9h 05m
Waning Crescent, 10% of the Moon is Illuminated
Dec 29
Waning Crescent
Jan 1
New
Jan 7
First Quarter
Jan 15
Full
Jan 23
Last Quarter

Hourly Weather History & Observations

Time (MST) Temp. Windchill Dew Point Humidity Pressure Visibility Wind Dir Wind Speed Gust Speed Precip Events Conditions
12:53 AM 10.0 °F - 3.0 °F 73% 30.37 in 10.0 mi Calm Calm - N/A   Clear
1:53 AM 9.0 °F - 3.0 °F 77% 30.32 in 10.0 mi Calm Calm - N/A   Clear
1:57 AM 3.0 °F - 1.0 °F 91% 30.21 in 2.0 mi Calm Calm - N/A   Partly Cloudy
2:02 AM 3.0 °F - -0.9 °F 84% 30.21 in 1.0 mi Calm Calm - N/A   Mist
2:11 AM 3.0 °F - -0.0 °F 87% 30.22 in 0.5 mi Calm Calm - N/A Fog Light Freezing Fog
2:28 AM 1.9 °F - -0.9 °F 88% 30.22 in 1.2 mi Calm Calm - N/A   Scattered Clouds
2:31 AM -0.0 °F - -2.0 °F 91% 30.22 in 4.0 mi Calm Calm - N/A   Partly Cloudy
2:36 AM 1.0 °F - -2.0 °F 87% 30.22 in 1.8 mi Calm Calm - N/A   Scattered Clouds
2:44 AM 1.9 °F - -0.9 °F 88% 30.23 in 3.0 mi Calm Calm - N/A   Partly Cloudy
2:53 AM 1.0 °F - -0.9 °F 91% 30.38 in 10.0 mi Calm Calm - N/A   Clear
3:53 AM -0.0 °F -7.9 °F -2.9 °F 88% 30.41 in 10.0 mi NNW 3.5 mph - N/A   Clear
4:53 AM -4.0 °F - -8.0 °F 83% 30.45 in 10.0 mi Calm Calm - N/A   Clear
5:53 AM -2.0 °F -12.2 °F -6.0 °F 83% 30.44 in 10.0 mi East 4.6 mph - N/A   Clear
6:53 AM -2.9 °F - -6.0 °F 87% 30.46 in 10.0 mi Calm Calm - N/A   Clear
7:53 AM -7.1 °F -18.1 °F -9.9 °F 87% 30.49 in 10.0 mi East 4.6 mph - N/A   Clear
8:53 AM -2.9 °F - -7.1 °F 82% 30.49 in 10.0 mi Calm Calm - N/A   Clear
9:53 AM 1.0 °F - -0.9 °F 91% 30.46 in 10.0 mi Calm Calm - N/A   Clear
10:53 AM 7.0 °F - 1.9 °F 80% 30.43 in 10.0 mi Calm Calm - N/A   Clear
11:53 AM 8.1 °F - 3.0 °F 80% 30.40 in 10.0 mi Calm Calm - N/A   Clear
12:53 PM 12.9 °F - 3.9 °F 67% 30.36 in 10.0 mi Calm Calm - N/A   Clear
1:53 PM 16.0 °F - 6.1 °F 65% 30.32 in 10.0 mi Calm Calm - N/A   Clear
2:53 PM 18.0 °F 11.1 °F 6.1 °F 60% 30.33 in 10.0 mi ENE 4.6 mph - N/A   Clear
3:53 PM 17.1 °F 11.7 °F 6.1 °F 62% 30.31 in 10.0 mi West 3.5 mph - N/A   Clear
4:53 PM 15.1 °F 9.4 °F 5.0 °F 64% 30.34 in 10.0 mi North 3.5 mph - N/A   Clear
5:53 PM 10.0 °F - 3.0 °F 73% 30.35 in 10.0 mi Calm Calm - N/A   Clear
6:53 PM 10.0 °F 3.6 °F 3.9 °F 76% 30.33 in 10.0 mi SW 3.5 mph - N/A   Clear
7:53 PM 10.0 °F 1.8 °F 1.9 °F 70% 30.37 in 10.0 mi Variable 4.6 mph - N/A   Clear
8:53 PM 17.1 °F 5.0 °F 6.1 °F 62% 30.32 in 10.0 mi NE 10.4 mph - N/A   Clear
9:53 PM 21.0 °F 7.6 °F 8.1 °F 57% 30.28 in 10.0 mi NNE 15.0 mph 23.0 mph N/A   Scattered Clouds
10:53 PM 5.0 °F -4.1 °F -0.9 °F 76% 30.37 in 10.0 mi West 4.6 mph - N/A   Clear
11:53 PM 6.1 °F - -0.9 °F 73% 30.37 in 10.0 mi Calm Calm - N/A   Clear